Home > Time Zones > World Clock > Weather > U.S.A. > Hilo > Past weeks

Flag for U.S.A. Weather past 2 weeks in Hilo, Hawaii, U.S.A.

Now
77 °F

Light rain. Fog.


Feels Like: 78 °F
Forecast: 75 / 85 °F
Wind: 6 mph from North

Location: Hilo International Airport

Current Time: Aug 1, 2015 at 2:28:22 PM

Latest Report: Aug 1, 2015 at 2:00 PM


Visibility: 2 mi

Pressure: 29.93 "Hg

Humidity: 94%

Dew point: 75 °F

Location of HiloLocation

Historic Weather in Hilo — Graph

°F

Hilo temperature yesterday

Maximum temperature yesterday: 87 °F (at 12:53 PM)
Minimum temperature yesterday: 73 °F (at 4:24 AM)
Average temperature yesterday: 78 °F

Past Weeks' High & Low Weather Summary

 TemperatureHumidityPressure
High88 °F (Jul 25, 12:53 PM)100% (Jul 17, 11:14 PM)30.06 "Hg (Jul 17, 11:14 PM)
Low70 °F (Jul 23, 3:53 AM)48% (Jul 25, 1:53 PM)29.89 "Hg (Jul 20, 2:53 PM)
Average77 °F82%29.97 "Hg
* Reported Jul 17 12:53 PM — Aug 1 12:53 PM, Hilo, Weather by CustomWeather, © 2015

Note: Actual official high and low records may vary slightly from our data, if they occured in-between our weather recording intervals... More about our weather records

Advertising

Hilo weather history for previous 24 hours

 ConditionsComfort  
Time TempWeatherWind HumidityBarometerVisibility
12:53 PM
Sat, Aug 1
77 °FLight rain. Fog.10 mph94%29.94 "Hg2 mi
11:53 AM76 °FLight rain. Fog.9 mph97%29.96 "Hg2 mi
11:31 AM75 °FLight rain. Fog.7 mph94%29.98 "Hg1 mi
11:12 AM77 °FLight rain. Fog.7 mph89%29.98 "Hg3 mi
11:00 AM77 °FLight rain. Fog.7 mph88%29.98 "Hg5 mi
10:22 AM77 °FLight rain. Mostly cloudy.6 mph94%29.99 "Hg8 mi
10:13 AM75 °FLight rain. Fog.7 mph94%29.99 "Hg2 mi
10:00 AM79 °FMostly cloudy.12 mph79%29.99 "Hg10 mi
9:31 AM79 °FOvercast.6 mph79%29.99 "Hg10 mi
9:16 AM79 °FLight rain. Mostly cloudy.3 mph79%29.98 "Hg2 mi
8:53 AM77 °FOvercast.9 mph77%29.97 "Hg10 mi
7:53 AM77 °FPartly sunny.5 mph79%29.96 "Hg10 mi
6:53 AM73 °FPartly sunny.7 mph88%29.96 "Hg10 mi
5:53 AM70 °FPassing clouds.7 mph87%29.94 "Hg10 mi
5:00 AM72 °FPassing clouds.6 mph83%29.94 "Hg10 mi
3:53 AM72 °FPassing clouds.6 mph91%29.93 "Hg10 mi
2:53 AM74 °FPassing clouds.5 mph91%29.94 "Hg10 mi
2:41 AM73 °FPassing clouds.No wind94%29.95 "Hg10 mi
1:53 AM74 °FPassing clouds.6 mph94%29.96 "Hg10 mi
12:53 AM76 °FPassing clouds.3 mph91%29.97 "Hg10 mi
12:09 AM75 °FPartly cloudy.5 mph94%29.99 "Hg10 mi
11:53 PM
Fri, Jul 31
76 °FPartly cloudy.5 mph91%29.99 "Hg10 mi
10:53 PM76 °FMostly cloudy.3 mph91%30.00 "Hg10 mi
9:53 PM76 °FLight rain. Overcast.5 mph88%30.00 "Hg10 mi
8:53 PM76 °FLight rain. Mostly cloudy.9 mph91%29.99 "Hg7 mi
7:53 PM76 °FLight rain. Fog.8 mph91%29.98 "Hg5 mi
6:53 PM78 °FOvercast.7 mph79%29.96 "Hg10 mi
5:53 PM78 °FLight rain. More clouds than sun.10 mph87%29.95 "Hg9 mi
4:53 PM82 °FPartly sunny.7 mph74%29.93 "Hg10 mi
3:53 PM86 °FBroken clouds.8 mph67%29.94 "Hg10 mi
2:53 PM85 °FPassing clouds.10 mph68%29.95 "Hg10 mi
Weather by CustomWeather, © 2015

See weather overviewHow to use our weather pages